Tracking 20093 objects as of 16-Dec-2019
HD Live streaming from Space Station
objects crossing your sky now

ORBCOMM FM 107

Track ORBCOMM FM 107 now!
10-day predictions
ORBCOMM FM 107 is classified as:


NORAD ID: 40087
Int'l Code: 2014-040B
Perigee: 715.9 km
Apogee: 718.5 km
Inclination: 47.0 °
Period: 99.0 minutes
Semi major axis: 7088 km
RCS: Unknown
Launch date: July 14, 2014
Source: United States (US)
Launch site: AIR FORCE EASTERN TEST RANGE (AFETR)
aabbcc
Your satellite tracking list
Your tracking list is empty




NASA's NSSDC Master Catalog

Two Line Element Set (TLE):
1 40087U 14040B   19349.77948463 +.00000019 +00000-0 +42613-4 0  9992
2 40087 047.0058 113.8186 0001866 127.2492 232.8563 14.54778002288286
Source of the keplerian elements: AFSPC